Content
SEND FEEDBACK

Daily
Averages
Monthly
Summary
France

PARIS, FRANCE


Home > Europe > France
Elevation: 96 meters     Latitude: 48 44N     Longitude: 002 24E

WEATHER
 
SELECT A DAY
Number of Records: 327,618;   Date Range: 7/1/96 - 10/29/14
 
SHARE

PRINT THIS DATA

[ ← Previous Day ]
WEATHER ALMANAC - 15 MARCH, 2013
[ Next Day → ]
[ °F ]   °C
Weather ElementAverageHighLow
Temperature1.9 °C7 °C (4:00 pm)-4 °C (3:30 am)
Dewpoint-3.3 °C-1 °C (4:00 pm)-5 °C (1:30 am)
Humidity69.8 %93 % (12:30 am)40 % (7:00 pm)
Barometer1015.6 hPa1017.6 hPa (1:00 am)1012.2 hPa (11:30 pm)
Wind Speed13.7 km/h27.8 km/h (4:00 pm)
Weather ElementAverage
Visibility13 km
Wind DirectionSSW (199.2 °)

Weather ElementTotal
Precipitation---
Heating Degree Days16.8 (Base 18.3)
Averaged from 51 records on 15 March, 2013
WEATHER CONDITIONS BREAKOUT
WIND DIRECTION BREAKOUT
WEATHER BY HOUR - 15 MARCH, 2013
[ °F ]   °C
Local TimeTemperatureDewpointHumidityBarometerVisibilityWind DirectionWind SpeedGust SpeedPrecipitationEventsConditions
12:30 AM-3 °C-4 °C93 %1016.3 hPaWNW (290°)5.6 km/hClear
1:00 AM-2.8 °C-3.9 °C87 %1017.6 hPa25.7 kmWest (280°)7.4 km/h
1:00 AM-3 °C-4 °C93 %1016.3 hPaWest (280°)7.4 km/hClear
1:30 AM-3 °C-5 °C86 %1016.3 hPaWNW (290°)9.3 km/hClear
2:00 AM-3 °C-4 °C93 %1016.3 hPaWNW (290°)7.4 km/hClear
2:30 AM-3 °C-5 °C86 %1016.3 hPaWest (270°)7.4 km/hClear
3:00 AM-3 °C-4 °C93 %1016.3 hPa10 kmWest (270°)7.4 km/hPartly Cloudy
3:30 AM-4 °C-5 °C93 %1016.3 hPaWNW (290°)9.3 km/hClear
4:00 AM-4 °C-5 °C93 %1016.3 hPaVariable3.7 km/hClear
4:47 AM-4 °C-5 °C93 %1016.3 hPaWSW (250°)7.4 km/hClear
5:00 AM-3 °C-4 °C93 %1016.3 hPaSW (220°)5.6 km/hClear
5:30 AM-3 °C-5 °C86 %1016.3 hPaWSW (240°)5.6 km/hClear
6:00 AM-3 °C-5 °C86 %1016.3 hPaVariable3.7 km/hClear
6:30 AM-3 °C-4 °C93 %1016.3 hPaVariable3.7 km/hClear
7:00 AM-3.3 °C-4.4 °C89 %1017.6 hPa17.7 kmCalmScattered Clouds
7:00 AM-3 °C-4 °C93 %1016.3 hPaCalmClear
7:30 AM-3 °C-4 °C93 %1017.3 hPaCalmClear
8:00 AM-2 °C-4 °C86 %1016.3 hPaSSW (200°)5.6 km/hClear
8:30 AM-1 °C-3 °C86 %1017.3 hPaSSW (200°)7.4 km/hClear
9:00 AM0 °C-3 °C80 %1017.3 hPaSSW (200°)7.4 km/hClear
9:30 AM1 °C-3 °C75 %1017.3 hPaSSW (210°)11.1 km/hClear
10:00 AM2 °C-3 °C70 %1017.3 hPaSSW (210°)14.8 km/hClear
10:30 AM3 °C-3 °C65 %1017.3 hPaSW (220°)16.7 km/hClear
11:00 AM4 °C-3 °C61 %1017.3 hPa10 kmSSW (210°)20.4 km/hMostly Cloudy
11:30 AM4 °C-3 °C61 %1017.3 hPa10 kmWSW (240°)24.1 km/hMostly Cloudy
12:00 PM5 °C-2 °C61 %1017.3 hPa10 kmSW (220°)22.2 km/hMostly Cloudy
12:30 PM5 °C-3 °C57 %1017.3 hPa10 kmSW (230°)24.1 km/hMostly Cloudy
1:00 PM4.4 °C-2.2 °C50 %1017.6 hPa25.7 kmSSW (210°)20.4 km/hScattered Clouds
1:00 PM5 °C-2 °C61 %1016.3 hPa10 kmSSW (210°)20.4 km/hMostly Cloudy
1:30 PM5 °C-3 °C57 %1016.3 hPa10 kmSW (220°)20.4 km/hMostly Cloudy
2:00 PM6 °C-2 °C57 %1016.3 hPa10 kmSSW (210°)24.1 km/hMostly Cloudy
2:30 PM6 °C-3 °C53 %1015.2 hPa10 kmSW (230°)24.1 km/hMostly Cloudy
3:00 PM6 °C-2 °C57 %1015.2 hPa10 kmSW (230°)22.2 km/hMostly Cloudy
3:30 PM6 °C-2 °C57 %1015.2 hPa10 kmSSW (210°)22.2 km/hMostly Cloudy
4:00 PM7 °C-1 °C57 %1015.2 hPa10 kmSSW (210°)27.8 km/hMostly Cloudy
4:30 PM7 °C-2 °C53 %1015.2 hPa10 kmSW (220°)24.1 km/hMostly Cloudy
5:00 PM7 °C-2 °C53 %1014.2 hPa10 kmSSW (210°)22.2 km/hMostly Cloudy
5:30 PM6 °C-3 °C53 %1014.2 hPa10 kmSSW (200°)20.4 km/hMostly Cloudy
6:00 PM6 °C-3 °C53 %1014.2 hPaSSW (210°)20.4 km/hClear
6:30 PM6 °C-3 °C53 %1014.2 hPaSSW (200°)20.4 km/hClear
7:00 PM5.6 °C-3.3 °C40 %1014.9 hPa30.6 kmSSW (210°)14.8 km/hScattered Clouds
7:00 PM6 °C-3 °C53 %1014.2 hPaSSW (210°)14.8 km/hClear
7:30 PM5 °C-3 °C57 %1014.2 hPaSSW (200°)14.8 km/hClear
8:00 PM6 °C-3 °C53 %1014.2 hPaSouth (190°)13 km/hClear
8:30 PM5 °C-3 °C57 %1014.2 hPa10 kmSouth (180°)13 km/hScattered Clouds
9:00 PM5 °C-3 °C57 %1014.2 hPaSouth (180°)14.8 km/hClear
9:30 PM5 °C-4 °C53 %1013.2 hPaSouth (180°)16.7 km/hClear
10:00 PM5 °C-4 °C53 %1013.2 hPaSouth (180°)13 km/hClear
10:30 PM5 °C-3 °C57 %1013.2 hPaSouth (180°)14.8 km/hClear
11:00 PM4 °C-3 °C61 %1013.2 hPaSouth (180°)14.8 km/hClear
11:30 PM4 °C-3 °C61 %1012.2 hPaSouth (190°)14.8 km/hClear
Hourly data recorded from LFPO, located 0 kilometers away from Paris, France







STORIES FROM OUR PARTNERS